Weather Roundup
Issued by NWS Springfield, MO

Home | Current Version | Previous Version | Text Only | Print | Product List | Glossary On
Versions: 1 2 3 4 5 6 7 8 9 10 11 12 13 14 15 16 17 18 19 20 21 22 23 24 25 26 27 28 29 30 31 32 33 34 35 36 37 38 39 40 41 42 43 44 45 46 47 48 49 50
000
NZUS99 KSGF 270507
HRRSGF

HOURLY WEATHER
NATIONAL WEATHER SERVICE SPRINGFIELD MO
1200 AM CDT SAT AUG 27 2016

......SGF CWA......

CITY           SKY/WX    TMP DP  RH WIND       PRES   REMARKS
SPRINGFIELD    CLOUDY    75  70  84 S5        30.05S
JOPLIN         PTCLDY    71  69  93 CALM      30.05R
WEST PLAINS    PTCLDY    72  68  87 CALM      30.08F
ROLLA          MOCLDY    74  72  93 SW7       30.04R
OSAGE BEACH    CLOUDY    71  69  93 CALM      30.05S
BRANSON        CLOUDY    73  72  94 CALM      30.07S

......SURROUNDING SGF CWA......

CITY           SKY/WX    TMP DP  RH WIND       PRES   REMARKS
CHANUTE        CLOUDY    72  70  93 SE5       30.03R
PARSONS        CLOUDY    71  69  93 E3        30.04R
COFFEYVILLE    CLOUDY    74  71  91 SE3       30.03R
EMPORIA        PTCLDY    70  68  93 S6        30.03R
GROVE OK       MOCLDY    70  70 100 CALM      30.05R
ROGERS AR      CLOUDY    72  71  97 CALM      30.08R
SILOAM SPRINGS CLOUDY    70  63  78 CALM      30.08R
HARRISON AR    MOCLDY    74  71  91 SE6       30.07R
NEAR YELLVILLE CLEAR     73  68  83 CALM      30.02F

......KANSAS AND MISSOURI......

CITY           SKY/WX    TMP DP  RH WIND       PRES   REMARKS
KANSAS CTY INT LGT RAIN  70  68  93 S12       30.04S
DOWNTOWN KC    TSTM      71  68  90 S14       30.03F FOG
COLUMBIA       CLOUDY    73  71  93 S6        30.05R
SEDALIA        PTCLDY    75  72  90 S5        30.05S
ST JOSEPH      MOCLDY    69  68  96 S6        30.02S FOG
ST LOUIS       MOCLDY    80  72  76 S9        30.03F
SPIRIT OF STL  MOCLDY    79  74  84 VRB5      30.01F
KIRKSVILLE     CLOUDY    72  70  93 NW10      30.06S
WICHITA        PTCLDY    73  69  87 S8        30.02S
TOPEKA         MOCLDY    71  68  90 E3        30.04R
OLATHE         LGT RAIN N/A N/A N/A W6        30.06R

......TENNESSEE......

CITY           SKY/WX    TMP DP  RH WIND       PRES   REMARKS
MEMPHIS        PTCLDY    75  71  87 SE3       30.05S
NASHVILLE      CLOUDY    76  70  82 N5        30.10S

......ARKANSAS.......

CITY           SKY/WX    TMP DP  RH WIND       PRES   REMARKS
FAYETTEVILLE   CLOUDY    70  70 100 CALM      30.06S
FT SMITH       CLOUDY    76  71  85 SW3       30.02S
LITTLE ROCK    CLOUDY    78  73  84 CALM      30.02F

......OKLAHOMA.......

CITY           SKY/WX    TMP DP  RH WIND       PRES   REMARKS
TULSA          CLOUDY    78  73  84 S8        30.00F
PONCA CITY     CLEAR     74  67  78 S8        30.01S
MCALESTER      MOCLDY    73  69  87 CALM      30.02F
OKLAHOMA CITY  PTCLDY    71  68  90 S5        30.03S

......IOWA............

CITY           SKY/WX    TMP DP  RH WIND       PRES   REMARKS
DES MOINES     CLOUDY    65  63  93 NE10      30.04F
QUAD CITIES    HVY RAIN  69  66  90 E9        30.08R FOG

......ILLINOIS........

CITY           SKY/WX    TMP DP  RH WIND       PRES   REMARKS
QUINCY         TSTM      70  70 100 VRB6      30.07R VSB 3/4
CHICAGO        LGT RAIN  69  65  86 NE7       30.12S




USA.gov is the U.S. government's official web portal to all federal, state and local government web resources and services.